This is the latest recevied weather packets stored in our database for station/object KD4WXI. If no packets are shown the sender has not sent any weather packets the latest 1 day(s).
| Time | Temp. | Humidity | Pressure | Rain* | Wind** | Luminosity | Snow |
|---|---|---|---|---|---|---|---|
| 1836274622 | 16.11° C | 99% | 1019.1 hPa | 0 mm | 0 m/s | 0 W/m² | - |
| 1836274475 | 15.56° C | 99% | 1018.9 hPa | 0 mm | 0 m/s | 0 W/m² | - |
| 1836274320 | 15.56° C | 99% | 1018.9 hPa | 0 mm | 0 m/s | 0 W/m² | - |
| 1836274173 | 16.11° C | 99% | 1018.9 hPa | 0 mm | 0 m/s | 0 W/m² | - |
| 1836274019 | 16.11° C | 99% | 1018.9 hPa | 0 mm | 0 m/s | 0 W/m² | - |
| 1778032885 | 16.11° C | 69% | 1014.5 hPa | 0 mm | 0 m/s | 0 W/m² | - |
| 1778032583 | 16.11° C | 69% | 1014.5 hPa | 0 mm | 0 m/s | 0 W/m² | - |
| 1778032279 | 16.67° C | 66% | 1014.6 hPa | 0 mm | 0 m/s | 0 W/m² | - |
| 1778031977 | 16.67° C | 64% | 1014.8 hPa | 0 mm | 0 m/s | 0 W/m² | - |
| 1778031672 | 17.22° C | 62% | 1014.6 hPa | 0 mm | 0 m/s | 0 W/m² | - |
| 1778031371 | 17.22° C | 61% | 1014.8 hPa | 0 mm | 0 m/s | 0 W/m² | - |
| 1778031067 | 17.22° C | 60% | 1014.5 hPa | 0 mm | 0 m/s | 0 W/m² | - |
| 1778030763 | 17.78° C | 60% | 1014.6 hPa | 0 mm | 0 m/s | 0 W/m² | - |
| 1778030460 | 17.78° C | 59% | 1014.6 hPa | 0 mm | 0 m/s | 0 W/m² | - |
| 1778030158 | 18.33° C | 59% | 1014.6 hPa | 0 mm | 0 m/s | 0 W/m² | - |
| 1778029854 | 18.89° C | 57% | 1014.7 hPa | 0 mm | 0 m/s | 0 W/m² | - |
| 1778029554 | 19.44° C | 54% | 1014.6 hPa | 0 mm | 0 m/s | 0 W/m² | - |
| 1778029250 | 19.44° C | 55% | 1014.5 hPa | 0 mm | 0 m/s | 0 W/m² | - |
| 1778028947 | 19.44° C | 54% | 1014.3 hPa | 0 mm | 0 m/s | 0 W/m² | - |
| 1778028643 | 20° C | 53% | 1014.2 hPa | 0 mm | 0 m/s | 0 W/m² | - |
| 1778028341 | 20° C | 52% | 1014.2 hPa | 0 mm | 0 m/s | 0 W/m² | - |
| 1778028047 | 20.56° C | 52% | 1014.1 hPa | 0 mm | 0 m/s | 0 W/m² | - |
| 1778027733 | 21.11° C | 50% | 1014 hPa | 0 mm | 0 m/s | 0 W/m² | - |
| 1778027429 | 21.67° C | 50% | 1014.1 hPa | 0 mm | 0 m/s | 0 W/m² | - |
| 1778027126 | 21.67° C | 50% | 1014 hPa | 0 mm | 0 m/s | 0 W/m² | - |
* Rain latest hour (hover to see other rain measurements)
** Current wind speed in m/s (hover to see current wind gust speed)